Location: *
(43.0167°S, 179.9000°E)
Time: 19:56:34
(UTC+00:00)

Lacrosse 4 Rocket - Pass Details

Date: 12 August 2024
Orbit: 520 x 592 km, 68.0° (Epoch: 19 September)

Event Time Altitude Azimuth Distance (km) Brightness Sun altitude
Rises 16:41:24 0° 8° (N) 2,787 5.0 -25.2°
Maximum altitude 16:47:11 20° 72° (ENE) 1,350 4.0 -24.2°
Drops below altitude 10° 16:50:15 10° 119° (ESE) 1,871 4.9 -23.6°
Sets 16:52:54 0° 136° (SE) 2,761 5.6 -23.1°
